Terminal Aerodrome Forecast
Issued by NWS St Louis, MO

Home | Current Version | Previous Version | Text Only | Print | Product List | Glossary On
Versions: 1 2 3 4 5 6 7 8 9 10 11 12 13 14 15 16 17 18 19 20 21 22 23 24 25 26 27 28 29 30 31 32
000
FTUS43 KLSX 182000 AAA
TAFSTL
TAF AMD
KSTL 182055Z 1821/1924 VRB04KT P6SM SCT040 BKN250
     FM190100 17005KT P6SM SCT025
     FM191300 21008KT P6SM BKN100
     FM192100 25015KT P6SM SCT040 BKN100=

USA.gov is the U.S. government's official web portal to all federal, state and local government web resources and services.